Kristian Kulset

Uno-X Pro Cycling Team

Information
Nationality Norway
Born1st October 1995 (25)
Height1.88 m

202120202019201820172016201520142013

Team RingeriksKraft (Continental) Race days: 18 Distance: 3km
Date Pos GC Race CAT
2016-06-12 12.06 DNF GP Horsens 1.2Show more
2016-03-30 30.03 78 Brugge-Sint Kruis 1.12B
2016-03-28 28.03 16 Moorslede-Vierkaven 1.13
2016-03-13 13.03 52 Haringe 1.12B
2016-03-24 24.03 111 Bellegem 1.12B
2016-03-26 26.03 43 Moorslede-Slypskapelle 1.12B
2016-03-20 20.03 76 Ichtegem 1.12B
2016-03-19 19.03 82 Zele 1.12B
2016-06-11 11.06 42 Fyen Rundt 1.2Show more
2016-06-05 05.06 DNF Memorial van Coningsloo 1.2Show more
2016-05-28 28.05 DNF Tour of Estonia 2.1Show more
2016-05-15 15.05 20 Gylne Gutuer (NC) N1
2016-05-08 08.05 DNF Ringerike GP 1.2Show more
2016-05-07 07.05 50 Sundvolden GP 1.2Show more
2016-05-03 03.05 4 Hedrumrittet NE
2016-04-24 24.04 10 Grenland GP (NC) N1
2016-04-16 16.04 8 Ronde van Berg NE
2016-04-09 09.04 10 Hooglede 1.12B
2016-04-07 07.04 DNF Evergem 1.12B
2016-04-06 06.04 12 Bredene 1.12B
2016-04-02 02.04 110 Anzegem 1.12B
2016-03-16 16.03 DNF Esplechin - GP Dewailly 1.12B
2016-03-12 12.03 69 Meulebeke 1.12B
2016-03-09 09.03 49 Templeuve 1.12B
2016-03-06 06.03 DNF Ichtegem 1.12A
2016-03-05 05.03 61 Geluwe 1.12B
2016-03-02 02.03 18 Gooik 1.12B
2016-02-28 28.02 36 Maldegem 1.12B
2016-02-21 21.02 98 - Volta a la Marina Alta-la Vilajoyosa NE
2016-06-19 19.06 34 CN Norway RR-U23 CN
2016-10-09 09.10 55 Paris - Tours U23 1.2UShow more
2016-10-02 02.10 DNF Piccolo Giro di Lombardia 1.2UShow more
2016-09-27 27.09 DNF Ruota d'Oro 1.2UShow more
2016-09-22 22.09 94 GP Eugeen Roggeman KP
2016-09-20 20.09 77 Textielprijs Vichte KP
2016-09-04 04.09 97 Tour des Fjords 2.1Show more
2016-08-25 25.08 54 GP Lucien Van Impe KP
2016-08-27 27.08 104 Omloop Mandel 1.2Show more
2016-08-19 19.08 32 Sandefjord Grand Prix N3
2016-08-23 23.08 DNF GP des Marbriers 1.2Show more
2016-07-16 16.07 38 U6 Cycle Tour NE
2016-08-06 06.08 27 Stjørdal (NC) N1
2016-07-31 31.07 84 Polynormande 1.1Show more
2016-07-25 25.07 49 GP Raf Jonckheere KP
2016-07-24 24.07 63 GP de Perenchies 1.2Show more
2016-06-26 26.06 36 CN Norway RR CN
2016-09-19 19.09 91 GP Paul Borremans KP
2016-09-04 04.09 58 Tour des Fjords | Youth 2.1
2016-09-04 04.09 101 97 Tour des Fjords | 5th stage 2.1
2016-09-03 03.09 103 97 Tour des Fjords | 4th stage 2.1
2016-09-02 02.09 110 98 Tour des Fjords | 3rd stage 2.1
2016-09-01 01.09 71 93 Tour des Fjords | 2nd stage 2.1
2016-08-31 31.08 129 129 Tour des Fjords | 1st stage 2.1
2016-07-16 16.07 57 U6 Cycle Tour | 6th stage NE
2016-07-15 15.07 58 U6 Cycle Tour | 5th stage NE
2016-07-14 14.07 47 U6 Cycle Tour | 4th stage NE
2016-07-13 13.07 64 U6 Cycle Tour | 3rd stage NE
2016-07-12 12.07 111 U6 Cycle Tour | 2nd stage NE
2016-07-11 11.07 91 U6 Cycle Tour | 1st stage NE
2016-05-28 28.05 DNF Tour of Estonia | 2nd stage 2.1
2016-05-27 27.05 74 75 Tour of Estonia | 1st stage 2.1